Darstellungsparameter: Aktuell verwendete Einstellungen:
Skalierung der Graphiken ... ?
xyx+y,   Skalierungsfaktor:      Skalierung: Modus: x, Faktor: 1
Darstellungszeitraum ... ?
Vom - - bis: - -   Zeitraum: 03.09.2020 - 05.09.2020
Min/Max/Avg-Anzeige ... ?
Zeige MMA aktuell
Zeige MMA Monat
Zeige MMA alles
Zeige --A aktuell
Zeige --A Monat
Zeige --A alles
Keine MMA-Anzeige
MMA:
Average (ber die Originaldaten)
MMA-Basis: 27.08.2020 - 29.09.2020
Quicknavigation für Darstellung... ?
Tage:      1T, 2T, 3T, 5T -1T -2T -3T -5T +1T +2T +3T +5T
Wochen: 1W, 2W, 3W -1W -2W -3W +1W +2W +3W
Monate: 1M, 3M, 6M -1M -3M -6M +1M +3M +6M
Jahre:    1J, 3J, 5J, 10J -1J -3J -5J -10J +1J +3J +5J +10J
Nutze für die Darstellung ... ?
Originaldaten oder Mittelwerte auf ...
Stundenbasis Tagesbasis Wochenbasis
Monatsbasis Jahresbasis      Datenbasis: Original-Daten
Darstellen als:
Statistik (Auto) Statistik J:M      Darstellung:
Zur Graphik,    zurück zur Übersicht aller Sensoren.
 
Tabellarische Datenbersicht: ?
 
Sensor: Nr:Datum:Temp:Abs-Feuchte:Windchill:Wind:
Aussen-T/F 1 03-09-2020 00:00:00 12.8 C 9.41 g/m*3 12.8 C 0 km/h
2 03-09-2020 00:05:00 12.8 C 9.41 g/m*3 12.8 C 0 km/h
3 03-09-2020 00:10:00 12.7 C 9.35 g/m*3 12.7 C 0 km/h
4 03-09-2020 00:15:00 12.6 C 9.29 g/m*3 12.6 C 0 km/h
5 03-09-2020 00:20:00 12.4 C 9.29 g/m*3 12.4 C 0 km/h
6 03-09-2020 00:25:00 12.4 C 9.29 g/m*3 12.4 C 0 km/h
7 03-09-2020 00:30:00 12.3 C 9.23 g/m*3 12.3 C 0 km/h
8 03-09-2020 00:35:00 12.2 C 9.17 g/m*3 12.2 C 0 km/h
9 03-09-2020 00:40:00 12.1 C 9.22 g/m*3 12.1 C 0 km/h
10 03-09-2020 00:45:00 11.9 C 9.11 g/m*3 11.9 C 0 km/h
11 03-09-2020 00:50:00 11.9 C 9.11 g/m*3 11.9 C 0 km/h
12 03-09-2020 00:55:00 11.8 C 9.05 g/m*3 11.8 C 0 km/h
13 03-09-2020 01:00:00 11.8 C 9.16 g/m*3 11.8 C 0 km/h
14 03-09-2020 01:05:00 11.7 C 9.1 g/m*3 11.7 C 0 km/h
15 03-09-2020 01:10:00 11.6 C 9.04 g/m*3 11.6 C 0 km/h
16 03-09-2020 01:15:00 11.6 C 9.04 g/m*3 11.6 C 0 km/h
17 03-09-2020 01:20:00 11.5 C 8.99 g/m*3 11.5 C 0 km/h
18 03-09-2020 01:25:00 11.4 C 9.03 g/m*3 11.4 C 0 km/h
19 03-09-2020 01:30:00 11.3 C 8.98 g/m*3 11.3 C 0 km/h
20 03-09-2020 01:35:00 11.3 C 8.98 g/m*3 11.3 C 0 km/h
21 03-09-2020 01:40:00 11.2 C 8.92 g/m*3 11.2 C 0 km/h
22 03-09-2020 01:45:00 11.2 C 8.92 g/m*3 11.2 C 0 km/h
23 03-09-2020 01:50:00 11.1 C 8.96 g/m*3 11.1 C 0 km/h
24 03-09-2020 01:55:00 10.9 C 8.85 g/m*3 10.9 C 0 km/h
25 03-09-2020 02:00:00 10.8 C 8.8 g/m*3 10.8 C 0 km/h
Sensor: Nr:Datum:Temp:Abs-Feuchte:Windchill:Wind:
Aussen-T/F 26 03-09-2020 02:05:00 10.8 C 8.8 g/m*3 10.8 C 0 km/h
27 03-09-2020 02:10:00 10.7 C 8.74 g/m*3 10.7 C 0 km/h
28 03-09-2020 02:15:00 10.7 C 8.74 g/m*3 10.7 C 0 km/h
29 03-09-2020 02:20:00 10.6 C 8.78 g/m*3 10.6 C 0 km/h
30 03-09-2020 02:25:00 10.6 C 8.78 g/m*3 10.6 C 0 km/h
31 03-09-2020 02:30:00 10.5 C 8.73 g/m*3 10.5 C 0 km/h
32 03-09-2020 02:35:00 10.4 C 8.67 g/m*3 10.4 C 0 km/h
33 03-09-2020 02:40:00 10.4 C 8.67 g/m*3 10.4 C 0 km/h
34 03-09-2020 02:45:00 10.4 C 8.77 g/m*3 10.4 C 0 km/h
35 03-09-2020 02:50:00 10.4 C 8.77 g/m*3 10.4 C 0 km/h
36 03-09-2020 02:55:00 10.4 C 8.77 g/m*3 10.4 C 0 km/h
37 03-09-2020 03:00:00 10.4 C 8.77 g/m*3 10.4 C 0 km/h
38 03-09-2020 03:05:00 10.4 C 8.77 g/m*3 10.4 C 0 km/h
39 03-09-2020 03:10:00 10.4 C 8.77 g/m*3 10.4 C 0 km/h
40 03-09-2020 03:15:00 10.3 C 8.71 g/m*3 10.3 C 0 km/h
41 03-09-2020 03:20:00 10.3 C 8.71 g/m*3 10.3 C 0 km/h
42 03-09-2020 03:25:00 10.3 C 8.81 g/m*3 10.3 C 0 km/h
43 03-09-2020 03:30:00 10.2 C 8.76 g/m*3 10.2 C 0 km/h
44 03-09-2020 03:35:00 10.2 C 8.76 g/m*3 10.2 C 0 km/h
45 03-09-2020 03:40:00 10.2 C 8.76 g/m*3 10.2 C 0 km/h
46 03-09-2020 03:45:00 10.2 C 8.76 g/m*3 10.2 C 0 km/h
47 03-09-2020 03:50:00 10.2 C 8.76 g/m*3 10.2 C 0 km/h
48 03-09-2020 03:55:00 10.2 C 8.76 g/m*3 10.2 C 0 km/h
49 03-09-2020 04:00:00 10.1 C 8.7 g/m*3 10.1 C 0 km/h
50 03-09-2020 04:05:00 10.1 C 8.7 g/m*3 10.1 C 0 km/h
Sensor: Nr:Datum:Temp:Abs-Feuchte:Windchill:Wind:
Aussen-T/F 51 03-09-2020 04:10:00 10.1 C 8.7 g/m*3 10.1 C 0 km/h
52 03-09-2020 04:15:00 10 C 8.64 g/m*3 10 C 0 km/h
53 03-09-2020 04:20:00 10 C 8.64 g/m*3 10 C 0 km/h
54 03-09-2020 04:25:00 10.1 C 8.79 g/m*3 10.1 C 0 km/h
55 03-09-2020 04:30:00 10.1 C 8.79 g/m*3 10.1 C 0 km/h
56 03-09-2020 04:35:00 10.1 C 8.79 g/m*3 10.1 C 0 km/h
57 03-09-2020 04:40:00 10.1 C 8.79 g/m*3 10.1 C 0 km/h
58 03-09-2020 04:45:00 10.1 C 8.79 g/m*3 10.1 C 0 km/h
59 03-09-2020 04:50:00 10 C 8.74 g/m*3 10 C 0 km/h
60 03-09-2020 04:55:00 9.9 C 8.68 g/m*3 9.9 C 0 km/h
61 03-09-2020 05:00:00 9.9 C 8.68 g/m*3 9.9 C 0 km/h
62 03-09-2020 05:05:00 9.9 C 8.68 g/m*3 9.9 C 0 km/h
63 03-09-2020 05:10:00 9.8 C 8.63 g/m*3 9.8 C 0 km/h
64 03-09-2020 05:15:00 9.8 C 8.63 g/m*3 9.8 C 0 km/h
65 03-09-2020 05:20:00 9.7 C 8.57 g/m*3 9.7 C 0 km/h
66 03-09-2020 05:25:00 9.7 C 8.57 g/m*3 9.7 C 0 km/h
67 03-09-2020 05:30:00 9.7 C 8.57 g/m*3 9.7 C 0 km/h
68 03-09-2020 05:35:00 9.8 C 8.72 g/m*3 9.8 C 0 km/h
69 03-09-2020 05:40:00 9.8 C 8.72 g/m*3 9.8 C 0 km/h
70 03-09-2020 05:45:00 9.9 C 8.78 g/m*3 9.9 C 1.6 km/h
71 03-09-2020 05:50:00 10 C 8.83 g/m*3 10 C 1.6 km/h
72 03-09-2020 05:55:00 10.1 C 8.89 g/m*3 10.1 C 0 km/h
73 03-09-2020 06:00:00 10.1 C 8.89 g/m*3 10.1 C 0 km/h
74 03-09-2020 06:05:00 10.1 C 8.89 g/m*3 10.1 C 0 km/h
75 03-09-2020 06:10:00 10.1 C 8.89 g/m*3 10.1 C 0 km/h
Sensor: Nr:Datum:Temp:Abs-Feuchte:Windchill:Wind:
Aussen-T/F 76 03-09-2020 06:15:00 10.1 C 8.89 g/m*3 10.1 C 0 km/h
77 03-09-2020 06:20:00 10.1 C 8.89 g/m*3 10.1 C 0 km/h
78 03-09-2020 06:25:00 10.1 C 8.89 g/m*3 10.1 C 1.6 km/h
79 03-09-2020 06:30:00 10.2 C 8.95 g/m*3 10.2 C 0 km/h
80 03-09-2020 06:35:00 10.2 C 8.95 g/m*3 10.2 C 0 km/h
81 03-09-2020 06:40:00 10.2 C 8.95 g/m*3 10.2 C 0 km/h
82 03-09-2020 06:45:00 10.2 C 8.95 g/m*3 10.2 C 0 km/h
83 03-09-2020 06:50:00 10.2 C 8.95 g/m*3 10.2 C 0 km/h
84 03-09-2020 06:55:00 10.1 C 8.89 g/m*3 10.1 C 0 km/h
85 03-09-2020 07:00:00 10.2 C 8.95 g/m*3 10.2 C 1.6 km/h
86 03-09-2020 07:05:00 10.2 C 8.95 g/m*3 10.2 C 0 km/h
87 03-09-2020 07:10:00 10.2 C 8.95 g/m*3 10.2 C 0 km/h
88 03-09-2020 07:15:00 10.3 C 9 g/m*3 10.3 C 0 km/h
89 03-09-2020 07:20:00 10.3 C 9 g/m*3 10.3 C 0 km/h
90 03-09-2020 07:25:00 10.3 C 9 g/m*3 10.3 C 0 km/h
91 03-09-2020 07:30:00 10.4 C 9.06 g/m*3 10.4 C 0 km/h
92 03-09-2020 07:35:00 10.4 C 9.06 g/m*3 10.4 C 0 km/h
93 03-09-2020 07:40:00 10.4 C 9.06 g/m*3 10.4 C 0 km/h
94 03-09-2020 07:45:00 10.5 C 9.12 g/m*3 10.5 C 0 km/h
95 03-09-2020 07:50:00 10.5 C 9.12 g/m*3 10.5 C 0 km/h
96 03-09-2020 07:55:00 10.6 C 9.17 g/m*3 10.6 C 0 km/h
97 03-09-2020 08:00:00 10.7 C 9.23 g/m*3 10.7 C 0 km/h
98 03-09-2020 08:05:00 10.7 C 9.23 g/m*3 10.7 C 0 km/h
99 03-09-2020 08:10:00 10.8 C 9.29 g/m*3 10.8 C 0 km/h
100 03-09-2020 08:15:00 10.9 C 9.35 g/m*3 10.9 C 0 km/h
Sensor: Nr:Datum:Temp:Abs-Feuchte:Windchill:Wind:
Aussen-T/F 101 03-09-2020 08:20:00 11.1 C 9.47 g/m*3 11.1 C 0 km/h
102 03-09-2020 08:25:00 11.2 C 9.53 g/m*3 11.2 C 1.6 km/h
103 03-09-2020 08:30:00 11.3 C 9.49 g/m*3 11.3 C 0 km/h
104 03-09-2020 08:35:00 11.4 C 9.55 g/m*3 11.4 C 0 km/h
105 03-09-2020 08:40:00 11.6 C 9.67 g/m*3 11.6 C 0 km/h
106 03-09-2020 08:45:00 11.7 C 9.62 g/m*3 11.7 C 1.6 km/h
107 03-09-2020 08:50:00 11.8 C 9.58 g/m*3 11.8 C 4.8 km/h
108 03-09-2020 08:55:00 11.9 C 9.64 g/m*3 11.9 C 1.6 km/h
109 03-09-2020 09:00:00 12 C 9.59 g/m*3 12 C 3.2 km/h
110 03-09-2020 09:05:00 12.1 C 9.65 g/m*3 12.1 C 1.6 km/h
111 03-09-2020 09:10:00 12.2 C 9.71 g/m*3 12.2 C 0 km/h
112 03-09-2020 09:15:00 12.3 C 9.66 g/m*3 12.3 C 1.6 km/h
113 03-09-2020 09:20:00 12.5 C 9.78 g/m*3 12.5 C 1.6 km/h
114 03-09-2020 09:25:00 12.7 C 9.91 g/m*3 12.7 C 0 km/h
115 03-09-2020 09:30:00 12.9 C 10.03 g/m*3 12.9 C 1.6 km/h
116 03-09-2020 09:35:00 13 C 9.98 g/m*3 13 C 1.6 km/h
117 03-09-2020 09:40:00 13.2 C 10.1 g/m*3 13.2 C 3.2 km/h
118 03-09-2020 09:45:00 13.3 C 10.17 g/m*3 13.3 C 1.6 km/h
119 03-09-2020 09:50:00 13.4 C 10.11 g/m*3 13.4 C 0 km/h
120 03-09-2020 09:55:00 13.6 C 10.24 g/m*3 13.6 C 0 km/h
121 03-09-2020 10:00:00 13.7 C 10.18 g/m*3 13.7 C 1.6 km/h
122 03-09-2020 10:05:00 13.8 C 10.13 g/m*3 13.8 C 3.2 km/h
123 03-09-2020 10:10:00 13.9 C 10.31 g/m*3 13.9 C 0 km/h
124 03-09-2020 10:15:00 14.1 C 10.32 g/m*3 14.1 C 1.6 km/h
125 03-09-2020 10:20:00 14.2 C 10.26 g/m*3 14.2 C 0 km/h
Sensor: Nr:Datum:Temp:Abs-Feuchte:Windchill:Wind:
Aussen-T/F 126 03-09-2020 10:25:00 14.4 C 10.38 g/m*3 14.4 C 0 km/h
127 03-09-2020 10:30:00 14.7 C 10.58 g/m*3 14.7 C 0 km/h
128 03-09-2020 10:35:00 14.9 C 10.58 g/m*3 14.9 C 0 km/h
129 03-09-2020 10:40:00 15.1 C 10.71 g/m*3 15.1 C 0 km/h
130 03-09-2020 10:45:00 15.3 C 10.71 g/m*3 15.3 C 0 km/h
131 03-09-2020 10:50:00 15.5 C 10.84 g/m*3 15.5 C 0 km/h
132 03-09-2020 10:55:00 15.7 C 10.97 g/m*3 15.7 C 0 km/h
133 03-09-2020 11:00:00 16 C 11.04 g/m*3 16 C 0 km/h
134 03-09-2020 11:05:00 16.3 C 11.1 g/m*3 16.3 C 1.6 km/h
135 03-09-2020 11:10:00 16.7 C 11.08 g/m*3 16.7 C 4.8 km/h
136 03-09-2020 11:15:00 17.1 C 11.21 g/m*3 17.1 C 4.8 km/h
137 03-09-2020 11:20:00 17.4 C 11.12 g/m*3 17.4 C 9.7 km/h
138 03-09-2020 11:25:00 17.7 C 11.16 g/m*3 17.7 C 11.3 km/h
139 03-09-2020 11:30:00 18 C 11.06 g/m*3 18 C 9.7 km/h
140 03-09-2020 11:35:00 18.2 C 11.19 g/m*3 18.2 C 8.1 km/h
141 03-09-2020 11:40:00 18.4 C 11.17 g/m*3 18.4 C 8.1 km/h
142 03-09-2020 11:45:00 18.5 C 10.92 g/m*3 18.5 C 8.1 km/h
143 03-09-2020 11:50:00 18.6 C 11.14 g/m*3 18.6 C 6.4 km/h
144 03-09-2020 11:55:00 18.7 C 11.21 g/m*3 18.7 C 9.7 km/h
145 03-09-2020 12:00:00 18.8 C 11.11 g/m*3 18.8 C 8.1 km/h
146 03-09-2020 12:05:00 18.8 C 10.95 g/m*3 18.8 C 6.4 km/h
147 03-09-2020 12:10:00 19.1 C 11.31 g/m*3 19.1 C 4.8 km/h
148 03-09-2020 12:15:00 19.2 C 11.21 g/m*3 19.2 C 4.8 km/h
149 03-09-2020 12:20:00 19.2 C 11.21 g/m*3 19.2 C 11.3 km/h
150 03-09-2020 12:25:00 19.3 C 11.11 g/m*3 19.3 C 8.1 km/h
Sensor: Nr:Datum:Temp:Abs-Feuchte:Windchill:Wind:
Aussen-T/F 151 03-09-2020 12:30:00 19.4 C 11.01 g/m*3 19.4 C 11.3 km/h
152 03-09-2020 12:35:00 19.5 C 11.08 g/m*3 19.5 C 8.1 km/h
153 03-09-2020 12:40:00 19.6 C 11.14 g/m*3 19.6 C 9.7 km/h
154 03-09-2020 12:45:00 19.7 C 11.04 g/m*3 19.7 C 8.1 km/h
155 03-09-2020 12:50:00 19.7 C 11.21 g/m*3 19.7 C 9.7 km/h
156 03-09-2020 12:55:00 19.7 C 11.04 g/m*3 19.7 C 11.3 km/h
157 03-09-2020 13:00:00 19.7 C 10.87 g/m*3 19.7 C 11.3 km/h
158 03-09-2020 13:05:00 19.6 C 11.14 g/m*3 19.6 C 9.7 km/h
159 03-09-2020 13:10:00 19.5 C 11.08 g/m*3 19.5 C 8.1 km/h
160 03-09-2020 13:15:00 19.5 C 11.08 g/m*3 19.5 C 9.7 km/h
161 03-09-2020 13:20:00 19.3 C 10.95 g/m*3 19.3 C 11.3 km/h
162 03-09-2020 13:25:00 19.3 C 11.11 g/m*3 19.3 C 9.7 km/h
163 03-09-2020 13:30:00 19.1 C 11.31 g/m*3 19.1 C 6.4 km/h
164 03-09-2020 13:35:00 18.9 C 11.83 g/m*3 18.9 C 3.2 km/h
165 03-09-2020 13:40:00 18.8 C 12.24 g/m*3 18.8 C 8.1 km/h
166 03-09-2020 13:45:00 18.6 C 12.26 g/m*3 18.6 C 4.8 km/h
167 03-09-2020 13:50:00 18.4 C 12.43 g/m*3 18.4 C 1.6 km/h
168 03-09-2020 13:55:00 18.3 C 12.35 g/m*3 18.3 C 4.8 km/h
169 03-09-2020 14:00:00 18.1 C 12.21 g/m*3 18.1 C 8.1 km/h
170 03-09-2020 14:05:00 17.9 C 11.91 g/m*3 17.9 C 6.4 km/h
171 03-09-2020 14:10:00 17.8 C 11.99 g/m*3 17.8 C 8.1 km/h
172 03-09-2020 14:15:00 17.7 C 11.77 g/m*3 17.7 C 6.4 km/h
173 03-09-2020 14:20:00 17.6 C 11.85 g/m*3 17.6 C 8.1 km/h
174 03-09-2020 14:25:00 17.6 C 11.85 g/m*3 17.6 C 8.1 km/h
175 03-09-2020 14:30:00 17.5 C 11.63 g/m*3 17.5 C 3.2 km/h
Sensor: Nr:Datum:Temp:Abs-Feuchte:Windchill:Wind:
Aussen-T/F 176 03-09-2020 14:35:00 17.6 C 11.85 g/m*3 17.6 C 0 km/h
177 03-09-2020 14:40:00 17.7 C 11.92 g/m*3 17.7 C 0 km/h
178 03-09-2020 14:45:00 17.7 C 11.92 g/m*3 17.7 C 0 km/h
179 03-09-2020 14:50:00 17.8 C 11.84 g/m*3 17.8 C 3.2 km/h
180 03-09-2020 14:55:00 17.8 C 11.99 g/m*3 17.8 C 0 km/h
181 03-09-2020 15:00:00 17.9 C 12.06 g/m*3 17.9 C 1.6 km/h
182 03-09-2020 15:05:00 17.9 C 12.06 g/m*3 17.9 C 4.8 km/h
183 03-09-2020 15:10:00 17.9 C 12.21 g/m*3 17.9 C 1.6 km/h
184 03-09-2020 15:15:00 18.1 C 12.67 g/m*3 18.1 C 0 km/h
185 03-09-2020 15:20:00 18.1 C 12.67 g/m*3 18.1 C 0 km/h
186 03-09-2020 15:25:00 18.2 C 12.75 g/m*3 18.2 C 3.2 km/h
187 03-09-2020 15:30:00 18.1 C 12.21 g/m*3 18.1 C 1.6 km/h
188 03-09-2020 15:35:00 18.1 C 12.36 g/m*3 18.1 C 3.2 km/h
189 03-09-2020 15:40:00 18.1 C 12.21 g/m*3 18.1 C 1.6 km/h
190 03-09-2020 15:45:00 18.1 C 12.05 g/m*3 18.1 C 12.9 km/h
191 03-09-2020 15:50:00 17.9 C 12.21 g/m*3 17.9 C 16.1 km/h
192 03-09-2020 15:55:00 17.5 C 12.23 g/m*3 17.5 C 16.1 km/h
193 03-09-2020 16:00:00 17.2 C 12.3 g/m*3 17.2 C 6.4 km/h
194 03-09-2020 16:05:00 16.7 C 12.08 g/m*3 16.7 C 9.7 km/h
195 03-09-2020 16:10:00 16.4 C 12.14 g/m*3 16.4 C 6.4 km/h
196 03-09-2020 16:15:00 16.2 C 12.27 g/m*3 16.2 C 4.8 km/h
197 03-09-2020 16:20:00 16.1 C 12.2 g/m*3 16.1 C 1.6 km/h
198 03-09-2020 16:25:00 16.1 C 12.34 g/m*3 16.1 C 0 km/h
199 03-09-2020 16:30:00 16.1 C 12.47 g/m*3 16.1 C 1.6 km/h
200 03-09-2020 16:35:00 16.1 C 12.47 g/m*3 16.1 C 1.6 km/h
Sensor: Nr:Datum:Temp:Abs-Feuchte:Windchill:Wind:
Aussen-T/F 201 03-09-2020 16:40:00 16 C 12.4 g/m*3 16 C 4.8 km/h
202 03-09-2020 16:45:00 15.8 C 12.25 g/m*3 15.8 C 1.6 km/h
203 03-09-2020 16:50:00 15.8 C 12.38 g/m*3 15.8 C 3.2 km/h
204 03-09-2020 16:55:00 15.9 C 12.46 g/m*3 15.9 C 0 km/h
205 03-09-2020 17:00:00 15.9 C 12.59 g/m*3 15.9 C 0 km/h
206 03-09-2020 17:05:00 15.9 C 12.59 g/m*3 15.9 C 1.6 km/h
207 03-09-2020 17:10:00 15.9 C 12.46 g/m*3 15.9 C 0 km/h
208 03-09-2020 17:15:00 15.9 C 12.46 g/m*3 15.9 C 3.2 km/h
209 03-09-2020 17:20:00 15.8 C 12.38 g/m*3 15.8 C 0 km/h
210 03-09-2020 17:25:00 15.8 C 12.38 g/m*3 15.8 C 0 km/h
211 03-09-2020 17:30:00 15.8 C 12.52 g/m*3 15.8 C 1.6 km/h
212 03-09-2020 17:35:00 15.8 C 12.52 g/m*3 15.8 C 0 km/h
213 03-09-2020 17:40:00 15.9 C 12.59 g/m*3 15.9 C 0 km/h
214 03-09-2020 17:45:00 15.8 C 12.52 g/m*3 15.8 C 3.2 km/h
215 03-09-2020 17:50:00 15.9 C 12.59 g/m*3 15.9 C 3.2 km/h
216 03-09-2020 17:55:00 15.9 C 12.59 g/m*3 15.9 C 1.6 km/h
217 03-09-2020 18:00:00 15.9 C 12.59 g/m*3 15.9 C 1.6 km/h
218 03-09-2020 18:05:00 15.9 C 12.59 g/m*3 15.9 C 0 km/h
219 03-09-2020 18:10:00 15.9 C 12.59 g/m*3 15.9 C 0 km/h
220 03-09-2020 18:15:00 15.9 C 12.59 g/m*3 15.9 C 0 km/h
221 03-09-2020 18:20:00 16.1 C 12.88 g/m*3 16.1 C 0 km/h
222 03-09-2020 18:25:00 16.2 C 12.96 g/m*3 16.2 C 1.6 km/h
223 03-09-2020 18:30:00 16.3 C 13.04 g/m*3 16.3 C 1.6 km/h
224 03-09-2020 18:35:00 16.3 C 13.04 g/m*3 16.3 C 0 km/h
225 03-09-2020 18:40:00 16.3 C 13.04 g/m*3 16.3 C 3.2 km/h
Sensor: Nr:Datum:Temp:Abs-Feuchte:Windchill:Wind:
Aussen-T/F 226 03-09-2020 18:45:00 16.2 C 12.82 g/m*3 16.2 C 3.2 km/h
227 03-09-2020 18:50:00 16.2 C 12.82 g/m*3 16.2 C 1.6 km/h
228 03-09-2020 18:55:00 16.2 C 12.82 g/m*3 16.2 C 3.2 km/h
229 03-09-2020 19:00:00 16.1 C 12.75 g/m*3 16.1 C 3.2 km/h
230 03-09-2020 19:05:00 16.1 C 12.75 g/m*3 16.1 C 0 km/h
231 03-09-2020 19:10:00 16.1 C 12.88 g/m*3 16.1 C 0 km/h
232 03-09-2020 19:15:00 16.1 C 12.88 g/m*3 16.1 C 1.6 km/h
233 03-09-2020 19:20:00 16.1 C 12.88 g/m*3 16.1 C 3.2 km/h
234 03-09-2020 19:25:00 16 C 12.81 g/m*3 16 C 3.2 km/h
235 03-09-2020 19:30:00 15.9 C 12.73 g/m*3 15.9 C 3.2 km/h
236 03-09-2020 19:35:00 15.9 C 12.73 g/m*3 15.9 C 3.2 km/h
237 03-09-2020 19:40:00 15.8 C 12.65 g/m*3 15.8 C 3.2 km/h
238 03-09-2020 19:45:00 15.8 C 12.65 g/m*3 15.8 C 3.2 km/h
239 03-09-2020 19:50:00 15.8 C 12.65 g/m*3 15.8 C 3.2 km/h
240 03-09-2020 19:55:00 15.7 C 12.58 g/m*3 15.7 C 3.2 km/h
241 03-09-2020 20:00:00 15.7 C 12.58 g/m*3 15.7 C 1.6 km/h
242 03-09-2020 20:05:00 15.7 C 12.58 g/m*3 15.7 C 3.2 km/h
243 03-09-2020 20:10:00 15.6 C 12.5 g/m*3 15.6 C 0 km/h
244 03-09-2020 20:15:00 15.6 C 12.5 g/m*3 15.6 C 3.2 km/h
245 03-09-2020 20:20:00 15.6 C 12.5 g/m*3 15.6 C 4.8 km/h
246 03-09-2020 20:25:00 15.6 C 12.5 g/m*3 15.6 C 0 km/h
247 03-09-2020 20:30:00 15.5 C 12.43 g/m*3 15.5 C 0 km/h
248 03-09-2020 20:35:00 15.4 C 12.35 g/m*3 15.4 C 0 km/h
249 03-09-2020 20:40:00 15.4 C 12.35 g/m*3 15.4 C 1.6 km/h
250 03-09-2020 20:45:00 15.3 C 12.28 g/m*3 15.3 C 0 km/h
Sensor: Nr:Datum:Temp:Abs-Feuchte:Windchill:Wind:
Aussen-T/F 251 03-09-2020 20:50:00 15.3 C 12.28 g/m*3 15.3 C 1.6 km/h
252 03-09-2020 20:55:00 15.3 C 12.28 g/m*3 15.3 C 4.8 km/h
253 03-09-2020 21:00:00 15.3 C 12.28 g/m*3 15.3 C 4.8 km/h
254 03-09-2020 21:05:00 15.3 C 12.28 g/m*3 15.3 C 4.8 km/h
255 03-09-2020 21:10:00 15.2 C 12.2 g/m*3 15.2 C 3.2 km/h
256 03-09-2020 21:15:00 15.2 C 12.2 g/m*3 15.2 C 3.2 km/h
257 03-09-2020 21:20:00 15.2 C 12.2 g/m*3 15.2 C 1.6 km/h
258 03-09-2020 21:25:00 15.3 C 12.41 g/m*3 15.3 C 0 km/h
259 03-09-2020 21:30:00 15.3 C 12.41 g/m*3 15.3 C 1.6 km/h
260 03-09-2020 21:35:00 15.3 C 12.41 g/m*3 15.3 C 0 km/h
261 03-09-2020 21:40:00 15.3 C 12.41 g/m*3 15.3 C 3.2 km/h
262 03-09-2020 21:45:00 15.3 C 12.41 g/m*3 15.3 C 1.6 km/h
263 03-09-2020 21:50:00 15.3 C 12.41 g/m*3 15.3 C 0 km/h
264 03-09-2020 21:55:00 15.4 C 12.48 g/m*3 15.4 C 0 km/h
265 03-09-2020 22:00:00 15.4 C 12.48 g/m*3 15.4 C 0 km/h
266 03-09-2020 22:05:00 15.5 C 12.56 g/m*3 15.5 C 1.6 km/h
267 03-09-2020 22:10:00 15.6 C 12.5 g/m*3 15.6 C 1.6 km/h
268 03-09-2020 22:15:00 15.6 C 12.5 g/m*3 15.6 C 0 km/h
269 03-09-2020 22:20:00 15.6 C 12.63 g/m*3 15.6 C 0 km/h
270 03-09-2020 22:25:00 15.7 C 12.71 g/m*3 15.7 C 0 km/h
271 03-09-2020 22:30:00 15.7 C 12.58 g/m*3 15.7 C 1.6 km/h
272 03-09-2020 22:35:00 15.7 C 12.58 g/m*3 15.7 C 1.6 km/h
273 03-09-2020 22:40:00 15.7 C 12.58 g/m*3 15.7 C 0 km/h
274 03-09-2020 22:45:00 15.7 C 12.58 g/m*3 15.7 C 1.6 km/h
275 03-09-2020 22:50:00 15.7 C 12.58 g/m*3 15.7 C 0 km/h
Sensor: Nr:Datum:Temp:Abs-Feuchte:Windchill:Wind:
Aussen-T/F 276 03-09-2020 22:55:00 15.7 C 12.58 g/m*3 15.7 C 0 km/h
277 03-09-2020 23:00:00 15.7 C 12.58 g/m*3 15.7 C 0 km/h
278 03-09-2020 23:05:00 15.7 C 12.58 g/m*3 15.7 C 0 km/h
279 03-09-2020 23:10:00 15.7 C 12.58 g/m*3 15.7 C 0 km/h
280 03-09-2020 23:15:00 15.7 C 12.58 g/m*3 15.7 C 0 km/h
281 03-09-2020 23:20:00 15.7 C 12.58 g/m*3 15.7 C 0 km/h
282 03-09-2020 23:25:00 15.7 C 12.58 g/m*3 15.7 C 0 km/h
283 03-09-2020 23:30:00 15.7 C 12.58 g/m*3 15.7 C 0 km/h
284 03-09-2020 23:35:00 15.8 C 12.65 g/m*3 15.8 C 0 km/h
285 03-09-2020 23:40:00 15.8 C 12.65 g/m*3 15.8 C 1.6 km/h
286 03-09-2020 23:45:00 15.8 C 12.65 g/m*3 15.8 C 0 km/h
287 03-09-2020 23:50:00 15.9 C 12.73 g/m*3 15.9 C 0 km/h
288 03-09-2020 23:55:00 15.9 C 12.73 g/m*3 15.9 C 0 km/h
289 04-09-2020 00:00:00 15.8 C 12.65 g/m*3 15.8 C 0 km/h
290 04-09-2020 00:05:00 15.8 C 12.65 g/m*3 15.8 C 0 km/h
291 04-09-2020 00:10:00 15.8 C 12.65 g/m*3 15.8 C 0 km/h
292 04-09-2020 00:15:00 15.8 C 12.65 g/m*3 15.8 C 0 km/h
293 04-09-2020 00:20:00 15.8 C 12.65 g/m*3 15.8 C 0 km/h
294 04-09-2020 00:25:00 15.8 C 12.65 g/m*3 15.8 C 0 km/h
295 04-09-2020 00:30:00 15.8 C 12.65 g/m*3 15.8 C 0 km/h
296 04-09-2020 00:35:00 15.8 C 12.65 g/m*3 15.8 C 0 km/h
297 04-09-2020 00:40:00 15.8 C 12.65 g/m*3 15.8 C 0 km/h
298 04-09-2020 00:45:00 15.9 C 12.73 g/m*3 15.9 C 0 km/h
299 04-09-2020 00:50:00 15.9 C 12.73 g/m*3 15.9 C 0 km/h
300 04-09-2020 00:55:00 15.9 C 12.73 g/m*3 15.9 C 0 km/h
Sensor: Nr:Datum:Temp:Abs-Feuchte:Windchill:Wind:
Aussen-T/F 301 04-09-2020 01:00:00 15.9 C 12.73 g/m*3 15.9 C 0 km/h
302 04-09-2020 01:05:00 15.8 C 12.65 g/m*3 15.8 C 0 km/h
303 04-09-2020 01:10:00 15.8 C 12.65 g/m*3 15.8 C 0 km/h
304 04-09-2020 01:15:00 15.8 C 12.65 g/m*3 15.8 C 0 km/h
305 04-09-2020 01:20:00 15.8 C 12.65 g/m*3 15.8 C 0 km/h
306 04-09-2020 01:25:00 15.7 C 12.58 g/m*3 15.7 C 0 km/h
307 04-09-2020 01:30:00 15.7 C 12.58 g/m*3 15.7 C 0 km/h
308 04-09-2020 01:35:00 15.7 C 12.58 g/m*3 15.7 C 1.6 km/h
309 04-09-2020 01:40:00 15.8 C 12.65 g/m*3 15.8 C 1.6 km/h
310 04-09-2020 01:45:00 15.8 C 12.65 g/m*3 15.8 C 0 km/h
311 04-09-2020 01:50:00 15.8 C 12.65 g/m*3 15.8 C 1.6 km/h
312 04-09-2020 01:55:00 15.8 C 12.65 g/m*3 15.8 C 0 km/h
313 04-09-2020 02:00:00 15.8 C 12.52 g/m*3 15.8 C 3.2 km/h
314 04-09-2020 02:05:00 15.7 C 12.44 g/m*3 15.7 C 1.6 km/h
315 04-09-2020 02:10:00 15.7 C 12.44 g/m*3 15.7 C 1.6 km/h
316 04-09-2020 02:15:00 15.7 C 12.44 g/m*3 15.7 C 0 km/h
317 04-09-2020 02:20:00 15.7 C 12.44 g/m*3 15.7 C 0 km/h
318 04-09-2020 02:25:00 15.7 C 12.44 g/m*3 15.7 C 1.6 km/h
319 04-09-2020 02:30:00 15.8 C 12.52 g/m*3 15.8 C 1.6 km/h
320 04-09-2020 02:35:00 15.8 C 12.52 g/m*3 15.8 C 1.6 km/h
321 04-09-2020 02:40:00 15.9 C 12.59 g/m*3 15.9 C 1.6 km/h
322 04-09-2020 02:45:00 16 C 12.67 g/m*3 16 C 0 km/h
323 04-09-2020 02:50:00 16.1 C 12.61 g/m*3 16.1 C 0 km/h
324 04-09-2020 02:55:00 16.2 C 12.82 g/m*3 16.2 C 0 km/h
325 04-09-2020 03:00:00 16.3 C 12.9 g/m*3 16.3 C 0 km/h
Sensor: Nr:Datum:Temp:Abs-Feuchte:Windchill:Wind:
Aussen-T/F 326 04-09-2020 03:05:00 16.4 C 12.98 g/m*3 16.4 C 1.6 km/h
327 04-09-2020 03:10:00 16.4 C 12.84 g/m*3 16.4 C 3.2 km/h
328 04-09-2020 03:15:00 16.4 C 12.84 g/m*3 16.4 C 4.8 km/h
329 04-09-2020 03:20:00 16.4 C 12.84 g/m*3 16.4 C 0 km/h
330 04-09-2020 03:25:00 16.4 C 12.84 g/m*3 16.4 C 0 km/h
331 04-09-2020 03:30:00 16.4 C 12.7 g/m*3 16.4 C 0 km/h
332 04-09-2020 03:35:00 16.5 C 12.78 g/m*3 16.5 C 0 km/h
333 04-09-2020 03:40:00 16.6 C 12.86 g/m*3 16.6 C 0 km/h
334 04-09-2020 03:45:00 16.6 C 12.86 g/m*3 16.6 C 0 km/h
335 04-09-2020 03:50:00 16.6 C 12.86 g/m*3 16.6 C 0 km/h
336 04-09-2020 03:55:00 16.6 C 12.86 g/m*3 16.6 C 0 km/h
337 04-09-2020 04:00:00 16.6 C 12.86 g/m*3 16.6 C 0 km/h
338 04-09-2020 04:05:00 16.6 C 12.71 g/m*3 16.6 C 0 km/h
339 04-09-2020 04:10:00 16.6 C 12.71 g/m*3 16.6 C 0 km/h
340 04-09-2020 04:15:00 16.6 C 12.71 g/m*3 16.6 C 0 km/h
341 04-09-2020 04:20:00 16.7 C 12.79 g/m*3 16.7 C 0 km/h
342 04-09-2020 04:25:00 16.8 C 13.01 g/m*3 16.8 C 0 km/h
343 04-09-2020 04:30:00 16.8 C 12.87 g/m*3 16.8 C 0 km/h
344 04-09-2020 04:35:00 16.8 C 12.87 g/m*3 16.8 C 0 km/h
345 04-09-2020 04:40:00 16.8 C 12.87 g/m*3 16.8 C 0 km/h
346 04-09-2020 04:45:00 16.7 C 12.79 g/m*3 16.7 C 0 km/h
347 04-09-2020 04:50:00 16.7 C 12.79 g/m*3 16.7 C 0 km/h
348 04-09-2020 04:55:00 16.7 C 12.79 g/m*3 16.7 C 0 km/h
349 04-09-2020 05:00:00 16.7 C 12.79 g/m*3 16.7 C 0 km/h
350 04-09-2020 05:05:00 16.7 C 12.79 g/m*3 16.7 C 0 km/h
Sensor: Nr:Datum:Temp:Abs-Feuchte:Windchill:Wind:
Aussen-T/F 351 04-09-2020 05:10:00 16.7 C 12.79 g/m*3 16.7 C 0 km/h
352 04-09-2020 05:15:00 16.7 C 12.79 g/m*3 16.7 C 0 km/h
353 04-09-2020 05:20:00 16.7 C 12.79 g/m*3 16.7 C 0 km/h
354 04-09-2020 05:25:00 16.7 C 12.79 g/m*3 16.7 C 0 km/h
355 04-09-2020 05:30:00 16.7 C 12.79 g/m*3 16.7 C 0 km/h
356 04-09-2020 05:35:00 16.7 C 12.93 g/m*3 16.7 C 0 km/h
357 04-09-2020 05:40:00 16.7 C 12.93 g/m*3 16.7 C 0 km/h
358 04-09-2020 05:45:00 16.7 C 12.93 g/m*3 16.7 C 0 km/h
359 04-09-2020 05:50:00 16.7 C 12.93 g/m*3 16.7 C 0 km/h
360 04-09-2020 05:55:00 16.7 C 12.93 g/m*3 16.7 C 0 km/h
361 04-09-2020 06:00:00 16.6 C 12.86 g/m*3 16.6 C 0 km/h
362 04-09-2020 06:05:00 16.6 C 12.71 g/m*3 16.6 C 0 km/h
363 04-09-2020 06:10:00 16.6 C 12.71 g/m*3 16.6 C 4.8 km/h
364 04-09-2020 06:15:00 16.5 C 12.64 g/m*3 16.5 C 4.8 km/h
365 04-09-2020 06:20:00 16.5 C 12.64 g/m*3 16.5 C 3.2 km/h
366 04-09-2020 06:25:00 16.5 C 12.64 g/m*3 16.5 C 0 km/h
367 04-09-2020 06:30:00 16.6 C 12.71 g/m*3 16.6 C 0 km/h
368 04-09-2020 06:35:00 16.6 C 12.71 g/m*3 16.6 C 3.2 km/h
369 04-09-2020 06:40:00 16.6 C 12.57 g/m*3 16.6 C 1.6 km/h
370 04-09-2020 06:45:00 16.6 C 12.71 g/m*3 16.6 C 0 km/h
371 04-09-2020 06:50:00 16.6 C 12.71 g/m*3 16.6 C 0 km/h
372 04-09-2020 06:55:00 16.7 C 12.79 g/m*3 16.7 C 3.2 km/h
373 04-09-2020 07:00:00 16.7 C 12.65 g/m*3 16.7 C 3.2 km/h
374 04-09-2020 07:05:00 16.7 C 12.65 g/m*3 16.7 C 3.2 km/h
375 04-09-2020 07:10:00 16.7 C 12.65 g/m*3 16.7 C 0 km/h
Sensor: Nr:Datum:Temp:Abs-Feuchte:Windchill:Wind:
Aussen-T/F 376 04-09-2020 07:15:00 16.7 C 12.65 g/m*3 16.7 C 0 km/h
377 04-09-2020 07:20:00 16.8 C 12.72 g/m*3 16.8 C 0 km/h
378 04-09-2020 07:25:00 16.8 C 12.72 g/m*3 16.8 C 0 km/h
379 04-09-2020 07:30:00 16.8 C 12.72 g/m*3 16.8 C 3.2 km/h
380 04-09-2020 07:35:00 16.8 C 12.72 g/m*3 16.8 C 0 km/h
381 04-09-2020 07:40:00 16.8 C 12.58 g/m*3 16.8 C 0 km/h
382 04-09-2020 07:45:00 16.8 C 12.72 g/m*3 16.8 C 0 km/h
383 04-09-2020 07:50:00 16.9 C 12.8 g/m*3 16.9 C 0 km/h
384 04-09-2020 07:55:00 16.9 C 12.8 g/m*3 16.9 C 0 km/h
385 04-09-2020 08:00:00 17 C 13.02 g/m*3 17 C 0 km/h
386 04-09-2020 08:05:00 17 C 13.02 g/m*3 17 C 0 km/h
387 04-09-2020 08:10:00 17.1 C 12.96 g/m*3 17.1 C 0 km/h
388 04-09-2020 08:15:00 17.1 C 12.96 g/m*3 17.1 C 3.2 km/h
389 04-09-2020 08:20:00 17.1 C 12.96 g/m*3 17.1 C 1.6 km/h
390 04-09-2020 08:25:00 17.1 C 12.96 g/m*3 17.1 C 0 km/h
391 04-09-2020 08:30:00 17.2 C 13.03 g/m*3 17.2 C 0 km/h
392 04-09-2020 08:35:00 17.2 C 13.03 g/m*3 17.2 C 0 km/h
393 04-09-2020 08:40:00 17.2 C 12.89 g/m*3 17.2 C 0 km/h
394 04-09-2020 08:45:00 17.3 C 12.96 g/m*3 17.3 C 0 km/h
395 04-09-2020 08:50:00 17.4 C 13.19 g/m*3 17.4 C 0 km/h
396 04-09-2020 08:55:00 17.4 C 13.04 g/m*3 17.4 C 0 km/h
397 04-09-2020 09:00:00 17.6 C 13.2 g/m*3 17.6 C 0 km/h
398 04-09-2020 09:05:00 17.7 C 13.28 g/m*3 17.7 C 0 km/h
399 04-09-2020 09:10:00 17.9 C 12.98 g/m*3 17.9 C 4.8 km/h
400 04-09-2020 09:15:00 18.1 C 13.29 g/m*3 18.1 C 1.6 km/h
Sensor: Nr:Datum:Temp:Abs-Feuchte:Windchill:Wind:
Aussen-T/F 401 04-09-2020 09:20:00 18.3 C 13.45 g/m*3 18.3 C 1.6 km/h
402 04-09-2020 09:25:00 18.4 C 13.37 g/m*3 18.4 C 1.6 km/h
403 04-09-2020 09:30:00 18.6 C 13.53 g/m*3 18.6 C 1.6 km/h
404 04-09-2020 09:35:00 18.6 C 13.53 g/m*3 18.6 C 0 km/h
405 04-09-2020 09:40:00 18.7 C 13.61 g/m*3 18.7 C 0 km/h
406 04-09-2020 09:45:00 18.7 C 13.61 g/m*3 18.7 C 1.6 km/h
407 04-09-2020 09:50:00 18.8 C 13.53 g/m*3 18.8 C 1.6 km/h
408 04-09-2020 09:55:00 18.8 C 13.53 g/m*3 18.8 C 0 km/h
409 04-09-2020 10:00:00 18.9 C 13.61 g/m*3 18.9 C 0 km/h
410 04-09-2020 10:05:00 18.9 C 13.61 g/m*3 18.9 C 0 km/h
411 04-09-2020 10:10:00 18.9 C 13.28 g/m*3 18.9 C 0 km/h
412 04-09-2020 10:15:00 19.1 C 13.61 g/m*3 19.1 C 0 km/h
413 04-09-2020 10:20:00 19.1 C 13.61 g/m*3 19.1 C 0 km/h
414 04-09-2020 10:25:00 19.2 C 13.52 g/m*3 19.2 C 0 km/h
415 04-09-2020 10:30:00 19.3 C 13.77 g/m*3 19.3 C 0 km/h
416 04-09-2020 10:35:00 19.4 C 13.85 g/m*3 19.4 C 0 km/h
417 04-09-2020 10:40:00 19.4 C 13.68 g/m*3 19.4 C 0 km/h
418 04-09-2020 10:45:00 19.6 C 13.84 g/m*3 19.6 C 0 km/h
419 04-09-2020 10:50:00 19.6 C 13.84 g/m*3 19.6 C 0 km/h
420 04-09-2020 10:55:00 19.7 C 13.92 g/m*3 19.7 C 1.6 km/h
421 04-09-2020 11:00:00 19.7 C 13.58 g/m*3 19.7 C 4.8 km/h
422 04-09-2020 11:05:00 19.7 C 13.75 g/m*3 19.7 C 1.6 km/h
423 04-09-2020 11:10:00 19.8 C 13.66 g/m*3 19.8 C 1.6 km/h
424 04-09-2020 11:15:00 19.9 C 13.92 g/m*3 19.9 C 0 km/h
425 04-09-2020 11:20:00 20.1 C 13.91 g/m*3 20.1 C 0 km/h
Sensor: Nr:Datum:Temp:Abs-Feuchte:Windchill:Wind:
Aussen-T/F 426 04-09-2020 11:25:00 20.3 C 14.07 g/m*3 20.3 C 0 km/h
427 04-09-2020 11:30:00 20.4 C 13.8 g/m*3 20.4 C 3.2 km/h
428 04-09-2020 11:35:00 20.6 C 13.78 g/m*3 20.6 C 0 km/h
429 04-09-2020 11:40:00 20.7 C 14.04 g/m*3 20.7 C 0 km/h
430 04-09-2020 11:45:00 20.9 C 13.66 g/m*3 20.9 C 4.8 km/h
431 04-09-2020 11:50:00 21.1 C 13.45 g/m*3 21.1 C 3.2 km/h
432 04-09-2020 11:55:00 21.3 C 13.98 g/m*3 21.3 C 3.2 km/h
433 04-09-2020 12:00:00 21.5 C 13.77 g/m*3 21.5 C 4.8 km/h
434 04-09-2020 12:05:00 21.7 C 13.54 g/m*3 21.7 C 12.9 km/h
435 04-09-2020 12:10:00 21.9 C 13.89 g/m*3 21.9 C 12.9 km/h
436 04-09-2020 12:15:00 22.1 C 13.86 g/m*3 22.1 C 9.7 km/h
437 04-09-2020 12:20:00 22.3 C 14.02 g/m*3 22.3 C 11.3 km/h
438 04-09-2020 12:25:00 22.4 C 14.1 g/m*3 22.4 C 9.7 km/h
439 04-09-2020 12:30:00 22.6 C 13.86 g/m*3 22.6 C 9.7 km/h
440 04-09-2020 12:35:00 22.8 C 14.02 g/m*3 22.8 C 11.3 km/h
441 04-09-2020 12:40:00 22.9 C 14.51 g/m*3 22.9 C 11.3 km/h
442 04-09-2020 12:45:00 22.9 C 14.31 g/m*3 22.9 C 9.7 km/h
443 04-09-2020 12:50:00 23.1 C 14.47 g/m*3 23.1 C 9.7 km/h
444 04-09-2020 12:55:00 23.2 C 14.34 g/m*3 23.2 C 12.9 km/h
445 04-09-2020 13:00:00 23.3 C 14.64 g/m*3 23.3 C 11.3 km/h
446 04-09-2020 13:05:00 23.6 C 14.68 g/m*3 23.6 C 14.5 km/h
447 04-09-2020 13:10:00 23.8 C 14.41 g/m*3 23.8 C 16.1 km/h
448 04-09-2020 13:15:00 23.9 C 14.49 g/m*3 23.9 C 12.9 km/h
449 04-09-2020 13:20:00 24.2 C 14.52 g/m*3 24.2 C 12.9 km/h
450 04-09-2020 13:25:00 24.4 C 14.47 g/m*3 24.4 C 12.9 km/h
Sensor: Nr:Datum:Temp:Abs-Feuchte:Windchill:Wind:
Aussen-T/F 451 04-09-2020 13:30:00 24.7 C 14.49 g/m*3 24.7 C 19.3 km/h
452 04-09-2020 13:35:00 24.8 C 14.57 g/m*3 24.8 C 19.3 km/h
453 04-09-2020 13:40:00 25.1 C 14.35 g/m*3 25.1 C 14.5 km/h
454 04-09-2020 13:45:00 25.3 C 14.98 g/m*3 25.3 C 11.3 km/h
455 04-09-2020 13:50:00 25.4 C 14.83 g/m*3 25.4 C 11.3 km/h
456 04-09-2020 13:55:00 25.5 C 14.91 g/m*3 25.5 C 14.5 km/h
457 04-09-2020 14:00:00 25.6 C 14.52 g/m*3 25.6 C 12.9 km/h
458 04-09-2020 14:05:00 25.7 C 14.6 g/m*3 25.7 C 14.5 km/h
459 04-09-2020 14:10:00 25.6 C 14.76 g/m*3 25.6 C 11.3 km/h
460 04-09-2020 14:15:00 25.6 C 14.52 g/m*3 25.6 C 12.9 km/h
461 04-09-2020 14:20:00 25.5 C 14.44 g/m*3 25.5 C 12.9 km/h
462 04-09-2020 14:25:00 25.5 C 14.68 g/m*3 25.5 C 12.9 km/h
463 04-09-2020 14:30:00 25.6 C 14.76 g/m*3 25.6 C 6.4 km/h
464 04-09-2020 14:35:00 25.7 C 14.6 g/m*3 25.7 C 9.7 km/h
465 04-09-2020 14:40:00 25.7 C 14.36 g/m*3 25.7 C 9.7 km/h
466 04-09-2020 14:45:00 25.8 C 14.93 g/m*3 25.8 C 4.8 km/h
467 04-09-2020 14:50:00 25.9 C 15.49 g/m*3 25.9 C 3.2 km/h
468 04-09-2020 14:55:00 25.9 C 14.28 g/m*3 25.9 C 11.3 km/h
469 04-09-2020 15:00:00 25.7 C 14.6 g/m*3 25.7 C 4.8 km/h
470 04-09-2020 15:05:00 25.7 C 14.6 g/m*3 25.7 C 9.7 km/h
471 04-09-2020 15:10:00 25.6 C 14.52 g/m*3 25.6 C 3.2 km/h
472 04-09-2020 15:15:00 25.6 C 14.52 g/m*3 25.6 C 6.4 km/h
473 04-09-2020 15:20:00 25.6 C 14.52 g/m*3 25.6 C 4.8 km/h
474 04-09-2020 15:25:00 25.6 C 14.52 g/m*3 25.6 C 6.4 km/h
475 04-09-2020 15:30:00 25.7 C 14.6 g/m*3 25.7 C 6.4 km/h
Sensor: Nr:Datum:Temp:Abs-Feuchte:Windchill:Wind:
Aussen-T/F 476 04-09-2020 15:35:00 25.8 C 14.93 g/m*3 25.8 C 3.2 km/h
477 04-09-2020 15:40:00 25.8 C 14.69 g/m*3 25.8 C 6.4 km/h
478 04-09-2020 15:45:00 25.8 C 14.93 g/m*3 25.8 C 0 km/h
479 04-09-2020 15:50:00 25.8 C 14.69 g/m*3 25.8 C 3.2 km/h
480 04-09-2020 15:55:00 25.9 C 14.53 g/m*3 25.9 C 4.8 km/h
481 04-09-2020 16:00:00 25.9 C 14.53 g/m*3 25.9 C 3.2 km/h
482 04-09-2020 16:05:00 26 C 14.61 g/m*3 26 C 6.4 km/h
483 04-09-2020 16:10:00 26.1 C 14.44 g/m*3 26.1 C 3.2 km/h
484 04-09-2020 16:15:00 26.2 C 14.52 g/m*3 26.2 C 3.2 km/h
485 04-09-2020 16:20:00 26.3 C 14.85 g/m*3 26.3 C 3.2 km/h
486 04-09-2020 16:25:00 26.2 C 14.28 g/m*3 26.2 C 4.8 km/h
487 04-09-2020 16:30:00 26.2 C 14.52 g/m*3 26.2 C 1.6 km/h
488 04-09-2020 16:35:00 26.3 C 14.61 g/m*3 26.3 C 3.2 km/h
489 04-09-2020 16:40:00 26.4 C 14.44 g/m*3 26.4 C 3.2 km/h
490 04-09-2020 16:45:00 26.5 C 14.77 g/m*3 26.5 C 0 km/h
491 04-09-2020 16:50:00 26.9 C 15.36 g/m*3 26.9 C 0 km/h
492 04-09-2020 16:55:00 27.1 C 14.49 g/m*3 27.1 C 3.2 km/h
493 04-09-2020 17:00:00 27.3 C 14.91 g/m*3 27.3 C 0 km/h
494 04-09-2020 17:05:00 27.6 C 14.63 g/m*3 27.6 C 1.6 km/h
495 04-09-2020 17:10:00 28.1 C 15.04 g/m*3 28.1 C 4.8 km/h
496 04-09-2020 17:15:00 28.4 C 14.73 g/m*3 28.4 C 6.4 km/h
497 04-09-2020 17:20:00 28.8 C 14.77 g/m*3 28.8 C 6.4 km/h
498 04-09-2020 17:25:00 28.8 C 14.77 g/m*3 28.8 C 8.1 km/h
499 04-09-2020 17:30:00 28.7 C 15.26 g/m*3 28.7 C 0 km/h
500 04-09-2020 17:35:00 28.6 C 16.02 g/m*3 28.6 C 1.6 km/h
Sensor: Nr:Datum:Temp:Abs-Feuchte:Windchill:Wind:
Aussen-T/F 501 04-09-2020 17:40:00 28.3 C 16.59 g/m*3 28.3 C 0 km/h
502 04-09-2020 17:45:00 28.1 C 15.59 g/m*3 28.1 C 0 km/h
503 04-09-2020 17:50:00 27.8 C 16.41 g/m*3 27.8 C 0 km/h
504 04-09-2020 17:55:00 27.4 C 15.79 g/m*3 27.4 C 0 km/h
505 04-09-2020 18:00:00 27.1 C 16.04 g/m*3 27.1 C 0 km/h
506 04-09-2020 18:05:00 26.7 C 15.44 g/m*3 26.7 C 9.7 km/h
507 04-09-2020 18:10:00 26.2 C 15.51 g/m*3 26.2 C 8.1 km/h
508 04-09-2020 18:15:00 25.8 C 15.41 g/m*3 25.8 C 9.7 km/h
509 04-09-2020 18:20:00 25.4 C 15.54 g/m*3 25.4 C 9.7 km/h
510 04-09-2020 18:25:00 25.4 C 15.77 g/m*3 25.4 C 8.1 km/h
511 04-09-2020 18:30:00 25.4 C 16.01 g/m*3 25.4 C 6.4 km/h
512 04-09-2020 18:35:00 25.4 C 16.01 g/m*3 25.4 C 11.3 km/h
513 04-09-2020 18:40:00 25.2 C 15.83 g/m*3 25.2 C 6.4 km/h
514 04-09-2020 18:45:00 24.9 C 15.79 g/m*3 24.9 C 8.1 km/h
515 04-09-2020 18:50:00 24.6 C 15.75 g/m*3 24.6 C 8.1 km/h
516 04-09-2020 18:55:00 24.4 C 16.02 g/m*3 24.4 C 8.1 km/h
517 04-09-2020 19:00:00 24.2 C 15.84 g/m*3 24.2 C 6.4 km/h
518 04-09-2020 19:05:00 24 C 15.88 g/m*3 24 C 3.2 km/h
519 04-09-2020 19:10:00 23.9 C 15.79 g/m*3 23.9 C 3.2 km/h
520 04-09-2020 19:15:00 23.8 C 15.92 g/m*3 23.8 C 3.2 km/h
521 04-09-2020 19:20:00 23.6 C 15.95 g/m*3 23.6 C 4.8 km/h
522 04-09-2020 19:25:00 23.4 C 15.77 g/m*3 23.4 C 4.8 km/h
523 04-09-2020 19:30:00 23.3 C 15.68 g/m*3 23.3 C 1.6 km/h
524 04-09-2020 19:35:00 23.2 C 15.8 g/m*3 23.2 C 4.8 km/h
525 04-09-2020 19:40:00 23.1 C 15.71 g/m*3 23.1 C 4.8 km/h
Sensor: Nr:Datum:Temp:Abs-Feuchte:Windchill:Wind:
Aussen-T/F 526 04-09-2020 19:45:00 22.9 C 15.74 g/m*3 22.9 C 6.4 km/h
527 04-09-2020 19:50:00 22.8 C 15.85 g/m*3 22.8 C 4.8 km/h
528 04-09-2020 19:55:00 22.7 C 15.96 g/m*3 22.7 C 4.8 km/h
529 04-09-2020 20:00:00 22.5 C 15.78 g/m*3 22.5 C 4.8 km/h
530 04-09-2020 20:05:00 22.3 C 15.8 g/m*3 22.3 C 8.1 km/h
531 04-09-2020 20:10:00 22.2 C 15.71 g/m*3 22.2 C 0 km/h
532 04-09-2020 20:15:00 22 C 15.53 g/m*3 22 C 0 km/h
533 04-09-2020 20:20:00 21.7 C 15.45 g/m*3 21.7 C 0 km/h
534 04-09-2020 20:25:00 21.4 C 15.37 g/m*3 21.4 C 0 km/h
535 04-09-2020 20:30:00 21.2 C 15.2 g/m*3 21.2 C 0 km/h
536 04-09-2020 20:35:00 20.9 C 15.12 g/m*3 20.9 C 0 km/h
537 04-09-2020 20:40:00 20.7 C 15.12 g/m*3 20.7 C 0 km/h
538 04-09-2020 20:45:00 20.4 C 15.04 g/m*3 20.4 C 0 km/h
539 04-09-2020 20:50:00 20.3 C 15.3 g/m*3 20.3 C 4.8 km/h
540 04-09-2020 20:55:00 20.3 C 15.3 g/m*3 20.3 C 0 km/h
541 04-09-2020 21:00:00 20.2 C 15.21 g/m*3 20.2 C 1.6 km/h
542 04-09-2020 21:05:00 20.1 C 15.3 g/m*3 20.1 C 4.8 km/h
543 04-09-2020 21:10:00 20.1 C 15.3 g/m*3 20.1 C 3.2 km/h
544 04-09-2020 21:15:00 20.1 C 15.3 g/m*3 20.1 C 3.2 km/h
545 04-09-2020 21:20:00 20.1 C 15.12 g/m*3 20.1 C 3.2 km/h
546 04-09-2020 21:25:00 20.1 C 15.12 g/m*3 20.1 C 3.2 km/h
547 04-09-2020 21:30:00 20.1 C 15.12 g/m*3 20.1 C 1.6 km/h
548 04-09-2020 21:35:00 20.1 C 15.12 g/m*3 20.1 C 1.6 km/h
549 04-09-2020 21:40:00 20.1 C 15.12 g/m*3 20.1 C 1.6 km/h
550 04-09-2020 21:45:00 20 C 15.04 g/m*3 20 C 1.6 km/h
Sensor: Nr:Datum:Temp:Abs-Feuchte:Windchill:Wind:
Aussen-T/F 551 04-09-2020 21:50:00 20 C 15.04 g/m*3 20 C 0 km/h
552 04-09-2020 21:55:00 19.9 C 14.95 g/m*3 19.9 C 0 km/h
553 04-09-2020 22:00:00 19.9 C 14.95 g/m*3 19.9 C 0 km/h
554 04-09-2020 22:05:00 19.9 C 14.95 g/m*3 19.9 C 1.6 km/h
555 04-09-2020 22:10:00 19.8 C 14.86 g/m*3 19.8 C 1.6 km/h
556 04-09-2020 22:15:00 19.8 C 14.86 g/m*3 19.8 C 1.6 km/h
557 04-09-2020 22:20:00 19.8 C 14.86 g/m*3 19.8 C 1.6 km/h
558 04-09-2020 22:25:00 19.7 C 14.77 g/m*3 19.7 C 0 km/h
559 04-09-2020 22:30:00 19.6 C 14.69 g/m*3 19.6 C 0 km/h
560 04-09-2020 22:35:00 19.4 C 14.35 g/m*3 19.4 C 0 km/h
561 04-09-2020 22:40:00 19.2 C 14.35 g/m*3 19.2 C 0 km/h
562 04-09-2020 22:45:00 19.1 C 14.26 g/m*3 19.1 C 0 km/h
563 04-09-2020 22:50:00 19 C 14.34 g/m*3 19 C 0 km/h
564 04-09-2020 22:55:00 18.9 C 14.42 g/m*3 18.9 C 0 km/h
565 04-09-2020 23:00:00 18.9 C 14.42 g/m*3 18.9 C 0 km/h
566 04-09-2020 23:05:00 18.8 C 14.33 g/m*3 18.8 C 0 km/h
567 04-09-2020 23:10:00 18.8 C 14.49 g/m*3 18.8 C 0 km/h
568 04-09-2020 23:15:00 18.8 C 14.49 g/m*3 18.8 C 0 km/h
569 04-09-2020 23:20:00 18.8 C 14.49 g/m*3 18.8 C 0 km/h
570 04-09-2020 23:25:00 18.8 C 14.49 g/m*3 18.8 C 0 km/h
571 04-09-2020 23:30:00 18.7 C 14.41 g/m*3 18.7 C 0 km/h
572 04-09-2020 23:35:00 18.7 C 14.57 g/m*3 18.7 C 0 km/h
573 04-09-2020 23:40:00 18.7 C 14.57 g/m*3 18.7 C 0 km/h
574 04-09-2020 23:45:00 18.6 C 14.48 g/m*3 18.6 C 0 km/h
575 04-09-2020 23:50:00 18.6 C 14.48 g/m*3 18.6 C 0 km/h
Sensor: Nr:Datum:Temp:Abs-Feuchte:Windchill:Wind:
Aussen-T/F 576 04-09-2020 23:55:00 18.5 C 14.4 g/m*3 18.5 C 0 km/h
577 05-09-2020 00:00:00 18.4 C 14.16 g/m*3 18.4 C 0 km/h
578 05-09-2020 00:05:00 18.3 C 14.23 g/m*3 18.3 C 1.6 km/h
579 05-09-2020 00:10:00 18.2 C 13.99 g/m*3 18.2 C 4.8 km/h
580 05-09-2020 00:15:00 18.1 C 14.06 g/m*3 18.1 C 0 km/h
581 05-09-2020 00:20:00 17.9 C 13.89 g/m*3 17.9 C 3.2 km/h
582 05-09-2020 00:25:00 17.8 C 13.81 g/m*3 17.8 C 4.8 km/h
583 05-09-2020 00:30:00 17.7 C 13.73 g/m*3 17.7 C 3.2 km/h
584 05-09-2020 00:35:00 17.6 C 13.65 g/m*3 17.6 C 3.2 km/h
585 05-09-2020 00:40:00 17.6 C 13.8 g/m*3 17.6 C 3.2 km/h
586 05-09-2020 00:45:00 17.4 C 13.49 g/m*3 17.4 C 0 km/h
587 05-09-2020 00:50:00 17.3 C 13.41 g/m*3 17.3 C 0 km/h
588 05-09-2020 00:55:00 17.2 C 13.47 g/m*3 17.2 C 0 km/h
589 05-09-2020 01:00:00 17.2 C 13.47 g/m*3 17.2 C 0 km/h
590 05-09-2020 01:05:00 17.1 C 13.39 g/m*3 17.1 C 0 km/h
591 05-09-2020 01:10:00 16.9 C 13.23 g/m*3 16.9 C 0 km/h
592 05-09-2020 01:15:00 16.8 C 13.15 g/m*3 16.8 C 0 km/h
593 05-09-2020 01:20:00 16.8 C 13.15 g/m*3 16.8 C 0 km/h
594 05-09-2020 01:25:00 16.7 C 13.07 g/m*3 16.7 C 0 km/h
595 05-09-2020 01:30:00 16.6 C 13 g/m*3 16.6 C 0 km/h
596 05-09-2020 01:35:00 16.4 C 12.84 g/m*3 16.4 C 0 km/h
597 05-09-2020 01:40:00 16.3 C 12.9 g/m*3 16.3 C 0 km/h
598 05-09-2020 01:45:00 16.3 C 12.9 g/m*3 16.3 C 0 km/h
599 05-09-2020 01:50:00 16.2 C 12.82 g/m*3 16.2 C 0 km/h
600 05-09-2020 01:55:00 16.1 C 12.75 g/m*3 16.1 C 0 km/h
Sensor: Nr:Datum:Temp:Abs-Feuchte:Windchill:Wind:
Aussen-T/F 601 05-09-2020 02:00:00 16 C 12.67 g/m*3 16 C 0 km/h
602 05-09-2020 02:05:00 15.9 C 12.59 g/m*3 15.9 C 0 km/h
603 05-09-2020 02:10:00 15.9 C 12.59 g/m*3 15.9 C 0 km/h
604 05-09-2020 02:15:00 15.8 C 12.65 g/m*3 15.8 C 0 km/h
605 05-09-2020 02:20:00 15.8 C 12.65 g/m*3 15.8 C 0 km/h
606 05-09-2020 02:25:00 15.8 C 12.65 g/m*3 15.8 C 0 km/h
607 05-09-2020 02:30:00 15.8 C 12.65 g/m*3 15.8 C 0 km/h
608 05-09-2020 02:35:00 15.9 C 12.73 g/m*3 15.9 C 0 km/h
609 05-09-2020 02:40:00 15.9 C 12.73 g/m*3 15.9 C 0 km/h
610 05-09-2020 02:45:00 15.9 C 12.73 g/m*3 15.9 C 0 km/h
611 05-09-2020 02:50:00 15.9 C 12.73 g/m*3 15.9 C 0 km/h
612 05-09-2020 02:55:00 15.9 C 12.73 g/m*3 15.9 C 0 km/h
613 05-09-2020 03:00:00 15.9 C 12.87 g/m*3 15.9 C 0 km/h
614 05-09-2020 03:05:00 15.9 C 12.87 g/m*3 15.9 C 0 km/h
615 05-09-2020 03:10:00 15.9 C 12.87 g/m*3 15.9 C 0 km/h
616 05-09-2020 03:15:00 16 C 12.94 g/m*3 16 C 0 km/h
617 05-09-2020 03:20:00 16 C 12.94 g/m*3 16 C 0 km/h
618 05-09-2020 03:25:00 16 C 12.94 g/m*3 16 C 0 km/h
619 05-09-2020 03:30:00 16 C 12.94 g/m*3 16 C 0 km/h
620 05-09-2020 03:35:00 16.1 C 13.02 g/m*3 16.1 C 0 km/h
621 05-09-2020 03:40:00 16.1 C 13.02 g/m*3 16.1 C 0 km/h
622 05-09-2020 03:45:00 16.2 C 13.1 g/m*3 16.2 C 0 km/h
623 05-09-2020 03:50:00 16.2 C 13.1 g/m*3 16.2 C 0 km/h
624 05-09-2020 03:55:00 16.2 C 13.1 g/m*3 16.2 C 0 km/h
625 05-09-2020 04:00:00 16.3 C 13.18 g/m*3 16.3 C 0 km/h
Sensor: Nr:Datum:Temp:Abs-Feuchte:Windchill:Wind:
Aussen-T/F 626 05-09-2020 04:05:00 16.3 C 13.18 g/m*3 16.3 C 0 km/h
627 05-09-2020 04:10:00 16.3 C 13.32 g/m*3 16.3 C 0 km/h
628 05-09-2020 04:15:00 16.4 C 13.4 g/m*3 16.4 C 0 km/h
629 05-09-2020 04:20:00 16.5 C 13.48 g/m*3 16.5 C 0 km/h
630 05-09-2020 04:25:00 16.6 C 13.56 g/m*3 16.6 C 4.8 km/h
631 05-09-2020 04:30:00 16.6 C 13.56 g/m*3 16.6 C 0 km/h
632 05-09-2020 04:35:00 16.6 C 13.56 g/m*3 16.6 C 0 km/h
633 05-09-2020 04:40:00 16.6 C 13.56 g/m*3 16.6 C 0 km/h
634 05-09-2020 04:45:00 16.6 C 13.56 g/m*3 16.6 C 0 km/h
635 05-09-2020 04:50:00 16.6 C 13.56 g/m*3 16.6 C 0 km/h
636 05-09-2020 04:55:00 16.7 C 13.64 g/m*3 16.7 C 0 km/h
637 05-09-2020 05:00:00 16.7 C 13.64 g/m*3 16.7 C 0 km/h
638 05-09-2020 05:05:00 16.7 C 13.64 g/m*3 16.7 C 0 km/h
639 05-09-2020 05:10:00 16.7 C 13.64 g/m*3 16.7 C 0 km/h
640 05-09-2020 05:15:00 16.7 C 13.64 g/m*3 16.7 C 0 km/h
641 05-09-2020 05:20:00 16.7 C 13.64 g/m*3 16.7 C 0 km/h
642 05-09-2020 05:25:00 16.7 C 13.64 g/m*3 16.7 C 0 km/h
643 05-09-2020 05:30:00 16.7 C 13.64 g/m*3 16.7 C 0 km/h
644 05-09-2020 05:35:00 16.7 C 13.5 g/m*3 16.7 C 0 km/h
645 05-09-2020 05:40:00 16.7 C 13.5 g/m*3 16.7 C 0 km/h
646 05-09-2020 05:45:00 16.7 C 13.5 g/m*3 16.7 C 0 km/h
647 05-09-2020 05:50:00 16.7 C 13.5 g/m*3 16.7 C 0 km/h
648 05-09-2020 05:55:00 16.7 C 13.5 g/m*3 16.7 C 0 km/h
649 05-09-2020 06:00:00 16.7 C 13.5 g/m*3 16.7 C 0 km/h
650 05-09-2020 06:05:00 16.7 C 13.5 g/m*3 16.7 C 0 km/h
Sensor: Nr:Datum:Temp:Abs-Feuchte:Windchill:Wind:
Aussen-T/F 651 05-09-2020 06:10:00 16.7 C 13.5 g/m*3 16.7 C 0 km/h
652 05-09-2020 06:15:00 16.7 C 13.5 g/m*3 16.7 C 8.1 km/h
653 05-09-2020 06:20:00 16.6 C 13.42 g/m*3 16.6 C 4.8 km/h
654 05-09-2020 06:25:00 16.4 C 13.12 g/m*3 16.4 C 9.7 km/h
655 05-09-2020 06:30:00 16 C 12.4 g/m*3 16 C 12.9 km/h
656 05-09-2020 06:35:00 15.9 C 12.05 g/m*3 15.9 C 4.8 km/h
657 05-09-2020 06:40:00 15.8 C 11.85 g/m*3 15.8 C 8.1 km/h
658 05-09-2020 06:45:00 15.8 C 11.58 g/m*3 15.8 C 12.9 km/h
659 05-09-2020 06:50:00 15.9 C 11.65 g/m*3 15.9 C 6.4 km/h
660 05-09-2020 06:55:00 15.9 C 11.51 g/m*3 15.9 C 4.8 km/h
661 05-09-2020 07:00:00 15.9 C 11.51 g/m*3 15.9 C 3.2 km/h
662 05-09-2020 07:05:00 15.9 C 11.51 g/m*3 15.9 C 3.2 km/h
663 05-09-2020 07:10:00 15.9 C 11.38 g/m*3 15.9 C 1.6 km/h
664 05-09-2020 07:15:00 15.9 C 11.38 g/m*3 15.9 C 6.4 km/h
665 05-09-2020 07:20:00 15.9 C 11.51 g/m*3 15.9 C 4.8 km/h
666 05-09-2020 07:25:00 15.9 C 11.38 g/m*3 15.9 C 1.6 km/h
667 05-09-2020 07:30:00 15.8 C 11.44 g/m*3 15.8 C 3.2 km/h
668 05-09-2020 07:35:00 15.8 C 11.44 g/m*3 15.8 C 1.6 km/h
669 05-09-2020 07:40:00 15.8 C 11.44 g/m*3 15.8 C 6.4 km/h
670 05-09-2020 07:45:00 15.7 C 11.37 g/m*3 15.7 C 6.4 km/h
671 05-09-2020 07:50:00 15.7 C 11.37 g/m*3 15.7 C 8.1 km/h
672 05-09-2020 07:55:00 15.6 C 11.3 g/m*3 15.6 C 1.6 km/h
673 05-09-2020 08:00:00 15.6 C 11.3 g/m*3 15.6 C 4.8 km/h
674 05-09-2020 08:05:00 15.6 C 11.3 g/m*3 15.6 C 6.4 km/h
675 05-09-2020 08:10:00 15.6 C 11.3 g/m*3 15.6 C 3.2 km/h
Sensor: Nr:Datum:Temp:Abs-Feuchte:Windchill:Wind:
Aussen-T/F 676 05-09-2020 08:15:00 15.6 C 11.3 g/m*3 15.6 C 1.6 km/h
677 05-09-2020 08:20:00 15.5 C 11.24 g/m*3 15.5 C 4.8 km/h
678 05-09-2020 08:25:00 15.5 C 11.24 g/m*3 15.5 C 1.6 km/h
679 05-09-2020 08:30:00 15.5 C 11.37 g/m*3 15.5 C 0 km/h
680 05-09-2020 08:35:00 15.5 C 11.37 g/m*3 15.5 C 0 km/h
681 05-09-2020 08:40:00 15.4 C 11.3 g/m*3 15.4 C 3.2 km/h
682 05-09-2020 08:45:00 15.4 C 11.3 g/m*3 15.4 C 0 km/h
683 05-09-2020 08:50:00 15.4 C 11.3 g/m*3 15.4 C 0 km/h
684 05-09-2020 08:55:00 15.5 C 11.37 g/m*3 15.5 C 1.6 km/h
685 05-09-2020 09:00:00 15.6 C 11.44 g/m*3 15.6 C 1.6 km/h
686 05-09-2020 09:05:00 15.6 C 11.44 g/m*3 15.6 C 1.6 km/h
687 05-09-2020 09:10:00 15.7 C 11.37 g/m*3 15.7 C 3.2 km/h
688 05-09-2020 09:15:00 15.8 C 11.44 g/m*3 15.8 C 3.2 km/h
689 05-09-2020 09:20:00 15.9 C 11.38 g/m*3 15.9 C 3.2 km/h
690 05-09-2020 09:25:00 15.9 C 11.24 g/m*3 15.9 C 4.8 km/h
691 05-09-2020 09:30:00 15.9 C 11.38 g/m*3 15.9 C 1.6 km/h
692 05-09-2020 09:35:00 15.9 C 11.24 g/m*3 15.9 C 0 km/h
693 05-09-2020 09:40:00 15.9 C 11.24 g/m*3 15.9 C 1.6 km/h
694 05-09-2020 09:45:00 16 C 11.44 g/m*3 16 C 6.4 km/h
695 05-09-2020 09:50:00 16.1 C 11.24 g/m*3 16.1 C 4.8 km/h
696 05-09-2020 09:55:00 16.2 C 11.31 g/m*3 16.2 C 9.7 km/h
697 05-09-2020 10:00:00 16.2 C 11.31 g/m*3 16.2 C 4.8 km/h
698 05-09-2020 10:05:00 16.2 C 11.17 g/m*3 16.2 C 6.4 km/h
699 05-09-2020 10:10:00 16.2 C 11.17 g/m*3 16.2 C 1.6 km/h
700 05-09-2020 10:15:00 16.3 C 11.24 g/m*3 16.3 C 3.2 km/h
Sensor: Nr:Datum:Temp:Abs-Feuchte:Windchill:Wind:
Aussen-T/F 701 05-09-2020 10:20:00 16.3 C 11.24 g/m*3 16.3 C 1.6 km/h
702 05-09-2020 10:25:00 16.4 C 11.31 g/m*3 16.4 C 9.7 km/h
703 05-09-2020 10:30:00 16.6 C 11.3 g/m*3 16.6 C 9.7 km/h
704 05-09-2020 10:35:00 16.8 C 11.44 g/m*3 16.8 C 6.4 km/h
705 05-09-2020 10:40:00 17.1 C 11.79 g/m*3 17.1 C 6.4 km/h
706 05-09-2020 10:45:00 17.2 C 11.86 g/m*3 17.2 C 11.3 km/h
707 05-09-2020 10:50:00 17.2 C 11.72 g/m*3 17.2 C 9.7 km/h
708 05-09-2020 10:55:00 17.2 C 11.57 g/m*3 17.2 C 11.3 km/h
709 05-09-2020 11:00:00 17.2 C 11.72 g/m*3 17.2 C 9.7 km/h
710 05-09-2020 11:05:00 17.3 C 11.64 g/m*3 17.3 C 4.8 km/h
711 05-09-2020 11:10:00 17.4 C 11.56 g/m*3 17.4 C 9.7 km/h
712 05-09-2020 11:15:00 17.5 C 11.63 g/m*3 17.5 C 8.1 km/h
713 05-09-2020 11:20:00 17.6 C 11.4 g/m*3 17.6 C 12.9 km/h
714 05-09-2020 11:25:00 17.8 C 11.54 g/m*3 17.8 C 8.1 km/h
715 05-09-2020 11:30:00 17.9 C 11.76 g/m*3 17.9 C 0 km/h
716 05-09-2020 11:35:00 18.2 C 11.66 g/m*3 18.2 C 8.1 km/h
717 05-09-2020 11:40:00 18.2 C 11.5 g/m*3 18.2 C 6.4 km/h
718 05-09-2020 11:45:00 18.2 C 11.5 g/m*3 18.2 C 6.4 km/h
719 05-09-2020 11:50:00 18.1 C 11.43 g/m*3 18.1 C 8.1 km/h
720 05-09-2020 11:55:00 18.1 C 11.43 g/m*3 18.1 C 12.9 km/h
721 05-09-2020 12:00:00 18.1 C 11.59 g/m*3 18.1 C 4.8 km/h
722 05-09-2020 12:05:00 18.1 C 11.43 g/m*3 18.1 C 14.5 km/h
723 05-09-2020 12:10:00 18.2 C 11.5 g/m*3 18.2 C 11.3 km/h
724 05-09-2020 12:15:00 18.3 C 11.41 g/m*3 18.3 C 9.7 km/h
725 05-09-2020 12:20:00 18.3 C 11.41 g/m*3 18.3 C 11.3 km/h
Sensor: Nr:Datum:Temp:Abs-Feuchte:Windchill:Wind:
Aussen-T/F 726 05-09-2020 12:25:00 18.3 C 11.26 g/m*3 18.3 C 11.3 km/h
727 05-09-2020 12:30:00 18.4 C 11.48 g/m*3 18.4 C 9.7 km/h
728 05-09-2020 12:35:00 18.5 C 11.39 g/m*3 18.5 C 6.4 km/h
729 05-09-2020 12:40:00 18.6 C 11.14 g/m*3 18.6 C 12.9 km/h
730 05-09-2020 12:45:00 18.6 C 11.14 g/m*3 18.6 C 17.7 km/h
731 05-09-2020 12:50:00 18.5 C 11.23 g/m*3 18.5 C 11.3 km/h
732 05-09-2020 12:55:00 18.5 C 11.39 g/m*3 18.5 C 12.9 km/h
733 05-09-2020 13:00:00 18.6 C 11.3 g/m*3 18.6 C 11.3 km/h
734 05-09-2020 13:05:00 18.6 C 11.3 g/m*3 18.6 C 12.9 km/h
735 05-09-2020 13:10:00 18.6 C 11.3 g/m*3 18.6 C 8.1 km/h
736 05-09-2020 13:15:00 18.6 C 11.3 g/m*3 18.6 C 8.1 km/h
737 05-09-2020 13:20:00 18.6 C 11.3 g/m*3 18.6 C 17.7 km/h
738 05-09-2020 13:25:00 18.6 C 11.3 g/m*3 18.6 C 14.5 km/h
739 05-09-2020 13:30:00 18.7 C 11.53 g/m*3 18.7 C 9.7 km/h
740 05-09-2020 13:35:00 18.7 C 11.21 g/m*3 18.7 C 12.9 km/h
741 05-09-2020 13:40:00 18.7 C 11.37 g/m*3 18.7 C 11.3 km/h
742 05-09-2020 13:45:00 18.6 C 11.3 g/m*3 18.6 C 11.3 km/h
743 05-09-2020 13:50:00 18.7 C 11.37 g/m*3 18.7 C 8.1 km/h
744 05-09-2020 13:55:00 18.7 C 11.21 g/m*3 18.7 C 6.4 km/h
745 05-09-2020 14:00:00 18.8 C 10.95 g/m*3 18.8 C 12.9 km/h
746 05-09-2020 14:05:00 18.8 C 10.95 g/m*3 18.8 C 14.5 km/h
747 05-09-2020 14:10:00 18.8 C 11.11 g/m*3 18.8 C 6.4 km/h
748 05-09-2020 14:15:00 18.9 C 11.18 g/m*3 18.9 C 14.5 km/h
749 05-09-2020 14:20:00 19 C 11.24 g/m*3 19 C 12.9 km/h
750 05-09-2020 14:25:00 19.1 C 11.15 g/m*3 19.1 C 12.9 km/h
Sensor: Nr:Datum:Temp:Abs-Feuchte:Windchill:Wind:
Aussen-T/F 751 05-09-2020 14:30:00 19.2 C 11.21 g/m*3 19.2 C 11.3 km/h
752 05-09-2020 14:35:00 19.1 C 11.15 g/m*3 19.1 C 12.9 km/h
753 05-09-2020 14:40:00 18.9 C 11.18 g/m*3 18.9 C 12.9 km/h
754 05-09-2020 14:45:00 18.7 C 11.37 g/m*3 18.7 C 17.7 km/h
755 05-09-2020 14:50:00 18.4 C 11.32 g/m*3 18.4 C 12.9 km/h
756 05-09-2020 14:55:00 18.2 C 11.19 g/m*3 18.2 C 12.9 km/h
757 05-09-2020 15:00:00 18 C 11.21 g/m*3 18 C 16.1 km/h
758 05-09-2020 15:05:00 17.8 C 11.23 g/m*3 17.8 C 8.1 km/h
759 05-09-2020 15:10:00 17.7 C 11.32 g/m*3 17.7 C 14.5 km/h
760 05-09-2020 15:15:00 17.6 C 11.1 g/m*3 17.6 C 9.7 km/h
761 05-09-2020 15:20:00 17.6 C 11.1 g/m*3 17.6 C 8.1 km/h
762 05-09-2020 15:25:00 17.5 C 11.03 g/m*3 17.5 C 8.1 km/h
763 05-09-2020 15:30:00 17.4 C 10.97 g/m*3 17.4 C 11.3 km/h
764 05-09-2020 15:35:00 17.5 C 11.03 g/m*3 17.5 C 11.3 km/h
765 05-09-2020 15:40:00 17.7 C 11.01 g/m*3 17.7 C 11.3 km/h
766 05-09-2020 15:45:00 18 C 11.21 g/m*3 18 C 9.7 km/h
767 05-09-2020 15:50:00 18.2 C 10.88 g/m*3 18.2 C 16.1 km/h
768 05-09-2020 15:55:00 18.2 C 10.72 g/m*3 18.2 C 11.3 km/h
769 05-09-2020 16:00:00 18.2 C 10.88 g/m*3 18.2 C 11.3 km/h
770 05-09-2020 16:05:00 18.2 C 10.72 g/m*3 18.2 C 11.3 km/h
771 05-09-2020 16:10:00 18.2 C 10.57 g/m*3 18.2 C 9.7 km/h
772 05-09-2020 16:15:00 18.3 C 10.63 g/m*3 18.3 C 11.3 km/h
773 05-09-2020 16:20:00 18.5 C 10.76 g/m*3 18.5 C 8.1 km/h
774 05-09-2020 16:25:00 18.7 C 10.73 g/m*3 18.7 C 11.3 km/h
775 05-09-2020 16:30:00 18.8 C 10.63 g/m*3 18.8 C 8.1 km/h
Sensor: Nr:Datum:Temp:Abs-Feuchte:Windchill:Wind:
Aussen-T/F 776 05-09-2020 16:35:00 18.9 C 10.85 g/m*3 18.9 C 11.3 km/h
777 05-09-2020 16:40:00 19.1 C 10.66 g/m*3 19.1 C 6.4 km/h
778 05-09-2020 16:45:00 19.1 C 10.66 g/m*3 19.1 C 8.1 km/h
779 05-09-2020 16:50:00 19.1 C 10.49 g/m*3 19.1 C 9.7 km/h
780 05-09-2020 16:55:00 19.1 C 10.49 g/m*3 19.1 C 9.7 km/h
781 05-09-2020 17:00:00 19 C 10.27 g/m*3 19 C 9.7 km/h
782 05-09-2020 17:05:00 19 C 10.43 g/m*3 19 C 8.1 km/h
783 05-09-2020 17:10:00 19.2 C 10.39 g/m*3 19.2 C 9.7 km/h
784 05-09-2020 17:15:00 19.3 C 10.12 g/m*3 19.3 C 11.3 km/h
785 05-09-2020 17:20:00 19.4 C 10.34 g/m*3 19.4 C 9.7 km/h
786 05-09-2020 17:25:00 19.5 C 10.07 g/m*3 19.5 C 8.1 km/h
787 05-09-2020 17:30:00 19.6 C 9.96 g/m*3 19.6 C 9.7 km/h
788 05-09-2020 17:35:00 19.6 C 9.96 g/m*3 19.6 C 11.3 km/h
789 05-09-2020 17:40:00 19.6 C 9.79 g/m*3 19.6 C 9.7 km/h
790 05-09-2020 17:45:00 19.7 C 9.68 g/m*3 19.7 C 11.3 km/h
791 05-09-2020 17:50:00 19.7 C 9.68 g/m*3 19.7 C 6.4 km/h
792 05-09-2020 17:55:00 19.7 C 9.85 g/m*3 19.7 C 8.1 km/h
793 05-09-2020 18:00:00 19.7 C 9.51 g/m*3 19.7 C 12.9 km/h
794 05-09-2020 18:05:00 19.6 C 9.28 g/m*3 19.6 C 9.7 km/h
795 05-09-2020 18:10:00 19.5 C 9.57 g/m*3 19.5 C 4.8 km/h
796 05-09-2020 18:15:00 19.5 C 9.57 g/m*3 19.5 C 6.4 km/h
797 05-09-2020 18:20:00 19.8 C 9.22 g/m*3 19.8 C 8.1 km/h
798 05-09-2020 18:25:00 20.3 C 9.15 g/m*3 20.3 C 6.4 km/h
799 05-09-2020 18:30:00 20.7 C 9.36 g/m*3 20.7 C 6.4 km/h
800 05-09-2020 18:35:00 20.7 C 8.82 g/m*3 20.7 C 11.3 km/h
Sensor: Nr:Datum:Temp:Abs-Feuchte:Windchill:Wind:
Aussen-T/F 801 05-09-2020 18:40:00 20.8 C 8.51 g/m*3 20.8 C 9.7 km/h
802 05-09-2020 18:45:00 20.8 C 8.33 g/m*3 20.8 C 12.9 km/h
803 05-09-2020 18:50:00 20.7 C 9 g/m*3 20.7 C 1.6 km/h
804 05-09-2020 18:55:00 20.3 C 8.44 g/m*3 20.3 C 4.8 km/h
805 05-09-2020 19:00:00 19.9 C 8.59 g/m*3 19.9 C 3.2 km/h
806 05-09-2020 19:05:00 19.6 C 8.44 g/m*3 19.6 C 8.1 km/h
807 05-09-2020 19:10:00 19.5 C 9.57 g/m*3 19.5 C 4.8 km/h
808 05-09-2020 19:15:00 19.4 C 10.01 g/m*3 19.4 C 0 km/h
809 05-09-2020 19:20:00 19.1 C 9.34 g/m*3 19.1 C 0 km/h
810 05-09-2020 19:25:00 18.8 C 9.18 g/m*3 18.8 C 0 km/h
811 05-09-2020 19:30:00 18.6 C 9.23 g/m*3 18.6 C 0 km/h
812 05-09-2020 19:35:00 18.3 C 9.69 g/m*3 18.3 C 0 km/h
813 05-09-2020 19:40:00 18 C 9.68 g/m*3 18 C 3.2 km/h
814 05-09-2020 19:45:00 17.6 C 9.15 g/m*3 17.6 C 1.6 km/h
815 05-09-2020 19:50:00 17.3 C 8.69 g/m*3 17.3 C 0 km/h
816 05-09-2020 19:55:00 17.1 C 9.03 g/m*3 17.1 C 0 km/h
817 05-09-2020 20:00:00 16.8 C 9.29 g/m*3 16.8 C 0 km/h
818 05-09-2020 20:05:00 16.7 C 8.81 g/m*3 16.7 C 6.4 km/h
819 05-09-2020 20:10:00 16.7 C 8.81 g/m*3 16.7 C 8.1 km/h
820 05-09-2020 20:15:00 16.7 C 8.95 g/m*3 16.7 C 4.8 km/h
821 05-09-2020 20:20:00 16.7 C 8.95 g/m*3 16.7 C 0 km/h
822 05-09-2020 20:25:00 16.7 C 9.38 g/m*3 16.7 C 0 km/h
823 05-09-2020 20:30:00 16.6 C 9.18 g/m*3 16.6 C 6.4 km/h
824 05-09-2020 20:35:00 16.5 C 9.27 g/m*3 16.5 C 4.8 km/h
825 05-09-2020 20:40:00 16.3 C 9.3 g/m*3 16.3 C 3.2 km/h
Sensor: Nr:Datum:Temp:Abs-Feuchte:Windchill:Wind:
Aussen-T/F 826 05-09-2020 20:45:00 16.1 C 9.46 g/m*3 16.1 C 4.8 km/h
827 05-09-2020 20:50:00 15.7 C 9.37 g/m*3 15.7 C 4.8 km/h
828 05-09-2020 20:55:00 15.4 C 9.46 g/m*3 15.4 C 0 km/h
829 05-09-2020 21:00:00 15.1 C 9.42 g/m*3 15.1 C 6.4 km/h
830 05-09-2020 21:05:00 14.9 C 9.43 g/m*3 14.9 C 4.8 km/h
831 05-09-2020 21:10:00 14.7 C 9.44 g/m*3 14.7 C 0 km/h
832 05-09-2020 21:15:00 14.5 C 9.33 g/m*3 14.5 C 0 km/h
833 05-09-2020 21:20:00 14.4 C 9.39 g/m*3 14.4 C 3.2 km/h
834 05-09-2020 21:25:00 14.3 C 9.46 g/m*3 14.3 C 3.2 km/h
835 05-09-2020 21:30:00 14.2 C 9.28 g/m*3 14.2 C 3.2 km/h
836 05-09-2020 21:35:00 14.2 C 9.28 g/m*3 14.2 C 0 km/h
837 05-09-2020 21:40:00 14.2 C 9.4 g/m*3 14.2 C 4.8 km/h
838 05-09-2020 21:45:00 14.1 C 9.22 g/m*3 14.1 C 1.6 km/h
839 05-09-2020 21:50:00 13.9 C 9.23 g/m*3 13.9 C 4.8 km/h
840 05-09-2020 21:55:00 13.8 C 9.29 g/m*3 13.8 C 4.8 km/h
841 05-09-2020 22:00:00 13.8 C 9.29 g/m*3 13.8 C 3.2 km/h
842 05-09-2020 22:05:00 13.7 C 9.12 g/m*3 13.7 C 6.4 km/h
843 05-09-2020 22:10:00 13.7 C 9.24 g/m*3 13.7 C 4.8 km/h
844 05-09-2020 22:15:00 13.7 C 9.24 g/m*3 13.7 C 4.8 km/h
845 05-09-2020 22:20:00 13.7 C 9.24 g/m*3 13.7 C 4.8 km/h
846 05-09-2020 22:25:00 13.7 C 9.24 g/m*3 13.7 C 4.8 km/h
847 05-09-2020 22:30:00 13.6 C 9.18 g/m*3 13.6 C 4.8 km/h
848 05-09-2020 22:35:00 13.7 C 9.24 g/m*3 13.7 C 6.4 km/h
849 05-09-2020 22:40:00 13.8 C 9.29 g/m*3 13.8 C 3.2 km/h
850 05-09-2020 22:45:00 13.8 C 9.41 g/m*3 13.8 C 0 km/h
Sensor: Nr:Datum:Temp:Abs-Feuchte:Windchill:Wind:
Aussen-T/F 851 05-09-2020 22:50:00 13.8 C 9.41 g/m*3 13.8 C 0 km/h
852 05-09-2020 22:55:00 13.7 C 9.35 g/m*3 13.7 C 0 km/h
853 05-09-2020 23:00:00 13.6 C 9.3 g/m*3 13.6 C 0 km/h
854 05-09-2020 23:05:00 13.4 C 9.18 g/m*3 13.4 C 4.8 km/h
855 05-09-2020 23:10:00 13.3 C 9.24 g/m*3 13.3 C 4.8 km/h
856 05-09-2020 23:15:00 13.2 C 9.19 g/m*3 13.2 C 3.2 km/h
857 05-09-2020 23:20:00 13.1 C 9.24 g/m*3 13.1 C 6.4 km/h
858 05-09-2020 23:25:00 13.1 C 9.24 g/m*3 13.1 C 4.8 km/h
859 05-09-2020 23:30:00 13.1 C 9.36 g/m*3 13.1 C 6.4 km/h
860 05-09-2020 23:35:00 12.9 C 9.24 g/m*3 12.9 C 4.8 km/h
861 05-09-2020 23:40:00 12.9 C 9.24 g/m*3 12.9 C 4.8 km/h
862 05-09-2020 23:45:00 12.8 C 9.07 g/m*3 12.8 C 4.8 km/h
863 05-09-2020 23:50:00 12.8 C 9.18 g/m*3 12.8 C 4.8 km/h
864 05-09-2020 23:55:00 12.8 C 9.18 g/m*3 12.8 C 4.8 km/h

Legende:
   Min
   Max


Maximal/Minimal-Werte vom 27.08.2020 - 29.09.2020

Sensor Min Max Avg
Temp
(Aussen-T/F)
7.3 °C
21-09-2020  07:15:00
33.7 °C
15-09-2020  17:35:00
16.03 °C

Die Daten stammen von einer Davis Vantage Pro 2 Wetter-Station und werden unter Linux mit der Software wview2wettercgi und aufbereitet. Alle Angaben erfolgen ohne Gewähr für ihre Vollständigkeit oder Richtigkeit.
Kontakt: Rainer Krienke krienke@uni-koblenz.de . Meine Webseiten an der Uni Koblenz oder privat.
Version: $Revision: 0.78 $